Washington State Current Weather Observations

 
 ASUS46 KSEW 132310
 RWRWA 
 
 WASHINGTON REGIONAL WEATHER ROUNDUP
 NATIONAL WEATHER SERVICE SEATTLE WA
 300 PM PST WED DEC 13 2017
 
 NOTE:"FAIR" INDICATES FEW OR NO CLOUDS BELOW 12,000 FEET WITH NO 
 SIGNIFICANT WEATHER AND/OR OBSTRUCTIONS TO VISIBILITY.
 
 WAZ507-509-555>559-140000-
 SEATTLE, TACOMA, EVERETT, AND VICINITY
   
 CITY           SKY/WX    TMP DP  RH WIND       PRES   REMARKS
 EVERETT        PTCLDY    44  38  79 NW6       30.39F                  
 BOEING FIELD   PTCLDY    48  37  65 NE7       30.39S                  
 RENTON         PTCLDY    48  39  71 N13       30.37S                  
 SEATAC AIRPORT MOCLDY    46  37  71 N12       30.36F                  
 JBLM-MCCHORD   PTCLDY    48  41  78 N10       30.37S                  
 PUYALLUP       FAIR      48  37  66 CALM      30.36S                  
 BREMERTON      MOCLDY    47  41  80 NE16      30.37S                  
 JBLM-FT LEWIS  NOT AVBL                                               
 TACOMA NARROWS PTCLDY    47  39  74 N8        30.37S                  
 
WAZ001-503-506-510-514-515-140000- NORTH INTERIOR CITY SKY/WX TMP DP RH WIND PRES REMARKS BELLINGHAM PTCLDY 48 39 71 N3 30.40F FRIDAY HARBOR PTCLDY 47 39 74 VRB6 30.42S EASTSOUND PTCLDY 46 43 87 N8 30.42S PORT ANGELES PTCLDY 49 39 68 E3 30.43R EDIZ HOOK FAIR 47 41 78 NE5 30.43R PORT TOWNSEND FAIR 48 43 81 NW7 30.41F NAS WHIDBEY PTCLDY 52 40 63 CALM 30.44S ARLINGTON PTCLDY 47 39 74 CALM 30.40S BURLINGTON CLEAR 48 41 76 NW6 30.41R
WAZ020-022-039-040-504-511-512-140000- SOUTHWEST INTERIOR CITY SKY/WX TMP DP RH WIND PRES REMARKS SHELTON MOCLDY 49 42 77 NE5 30.34S OLYMPIA PTCLDY 50 40 68 VRB7 30.36S CHEHALIS FAIR 52 39 62 N6 30.35R KELSO MOSUNNY 50 35 56 CALM 30.35F VANCOUVER SUNNY 44 31 60 SE5 30.36S SCAPPOOSE, OR SUNNY 47 33 58 SE3 30.35S PORTLAND, OR MOSUNNY 44 29 55 SE9 30.36S
WAZ021-516-517-140000- WASHINGTON COAST CITY SKY/WX TMP DP RH WIND PRES REMARKS FORKS PTCLDY 46 44 93 CALM 30.34S HOQUIAM MOSUNNY 51 40 65 NE9 30.34R ASTORIA, OR SUNNY 54 36 50 E8 30.29S
WAZ019-023-024-040-567>569-140000- CASCADE MOUNTAINS AND COLUMBIA GORGE CITY SKY/WX TMP DP RH WIND PRES REMARKS STAMPEDE PASS NOT AVBL TROUTDALE, OR SUNNY 40 28 62 E31G41 30.36S HOOD RIVER, OR CLOUDY 34 27 75 E8 30.58R HAZE THE DALLES, OR CLOUDY 36 26 67 SE3 30.60S
WAZ026-027-041>044-520-521-140000- EAST SLOPES CITY SKY/WX TMP DP RH WIND PRES REMARKS OMAK CLEAR 36 30 79 N8 30.53R WENATCHEE PTCLDY 35 25 66 CALM 30.54R ELLENSBURG CLOUDY 31 24 75 SE3 30.51R YAKIMA CLOUDY 35 26 69 CALM 30.56R SUNNYSIDE ARPT CLOUDY 32 25 76 CALM 30.59S YAKIMA TC CLOUDY 32 25 74 NW3 30.52R
WAZ028-034-035-140000- COLUMBIA BASIN CITY SKY/WX TMP DP RH WIND PRES REMARKS EPHRATA CLOUDY 34 22 61 S9 30.54R MOSES LAKE CLOUDY 32 25 75 S7 30.56R PASCO CLOUDY 34 25 69 NE5 30.62R RICHLAND ARPT CLOUDY 35 28 75 NE6 30.62R HERMISTON, OR CLOUDY 32 27 81 CALM 30.59R
WAZ036>038-140000- NORTHEAST WASHINGTON CITY SKY/WX TMP DP RH WIND PRES REMARKS SPOKANE GEIGER CLOUDY 30 25 81 CALM 30.48S SPOKANE FELTS CLOUDY 32 25 75 CALM 30.51S FAIRCHILD AFB CLOUDY 29 27 93 CALM 30.47S COEURDALENE,ID CLOUDY 31 26 82 CALM 30.50R DEER PARK CLOUDY 30 25 81 E5 30.50S
WAZ029>033-140000- SOUTHEAST WASHINGTON CITY SKY/WX TMP DP RH WIND PRES REMARKS PULLMAN CLOUDY 27 24 89 CALM 30.49S LEWISTON, ID CLOUDY 32 27 81 SW7 30.53F WALLA WALLA CLOUDY 30 25 81 CALM 30.55S PENDLETON, OR CLOUDY 29 24 82 CALM 30.53R

Data from: http://www.wrh.noaa.gov/sew/get.php?pil=RWR&sid=WA&version=0&format=printer

Current Observations

Current Weather Conditions by Major Highway
Washington State Current Weather Observations   …  Oregon State Current Weather Observation



48 Hour Forecast


Seattle  …  Vancouver  …  Portland
————————————————————————————————————————
Bend  …  Spokane  …  Richland  …  Pendleton  …  Blue Mountains I-84  …  Yakima
————————————————————————————————————————
Goldendale, Washington Higher Elevations  …  Dallesport Airport - Goldendale  …  Bingen - White Salmon - Hood River  …  Index





Top of Page